FW7227 Weather Reports


time (UTC)temp
C
wind
direction
speed
KPH
gust
KPH
rain 1hr
cm
rain 24hr
cm
rain mn
cm
humidity
%
barometer
mb
20260503223056 16 228 3.2 8.0 0.00 0.00 0.00 61 1011.8
20260503222558 17 360 3.2 8.0 0.00 0.00 0.00 60 1011.8
20260503222057 17 360 3.2 6.4 0.00 0.00 0.00 59 1011.7
20260503221610 17 360 0.0 4.8 0.00 0.00 0.00 58 1011.6
20260503221057 17 279 0.0 9.7 0.00 0.00 0.00 58 1011.6
20260503220558 17 0 1.6 9.7 0.00 0.00 0.00 57 1011.5
20260503220057 17 262 1.6 9.7 0.00 0.00 0.00 57 1011.5
20260503215557 17 263 1.6 9.7 0.00 0.00 0.00 57 1011.5
20260503215056 17 238 3.2 12.9 0.00 0.00 0.00 56 1011.6
20260503214557 17 246 4.8 12.9 0.00 0.00 0.00 55 1011.5
20260503214057 17 248 6.4 12.9 0.00 0.00 0.00 55 1011.5
20260503213557 17 246 4.8 11.3 0.00 0.00 0.00 54 1011.5
20260503213057 17 275 3.2 14.5 0.00 0.00 0.00 54 1011.4
20260503212557 17 274 8.0 16.1 0.00 0.00 0.00 54 1011.4
20260503212058 17 264 6.4 17.7 0.00 0.00 0.00 53 1011.4
20260503211556 17 288 8.0 17.7 0.00 0.00 0.00 53 1011.4
20260503211057 18 273 8.0 17.7 0.00 0.00 0.00 53 1011.4
20260503210557 18 280 8.0 19.3 0.00 0.00 0.00 53 1011.3
20260503210100 18 268 9.7 19.3 0.00 0.00 0.00 53 1011.2
20260503205559 18 287 9.7 19.3 0.00 0.00 0.00 53 1011.2
20260503205058 18 263 9.7 17.7 0.00 0.00 0.00 52 1011.2
20260503204558 18 266 6.4 16.1 0.00 0.00 0.00 52 1011.2
20260503204056 18 279 8.0 16.1 0.00 0.00 0.00 51 1011.2
20260503203556 18 257 8.0 19.3 0.00 0.00 0.00 51 1011.2
20260503203100 18 285 11.3 19.3 0.00 0.00 0.00 50 1011.2
20260503202556 18 257 11.3 20.9 0.00 0.00 0.00 50 1011.2
20260503202057 18 283 9.7 20.9 0.00 0.00 0.00 49 1011.3
20260503201558 18 272 11.3 24.1 0.00 0.00 0.00 49 1011.2
20260503201059 18 293 11.3 24.1 0.00 0.00 0.00 47 1011.2
20260503200557 18 304 9.7 19.3 0.00 0.00 0.00 46 1011.2
20260503200058 18 269 8.0 16.1 0.00 0.00 0.00 45 1011.1
20260503195600 19 274 6.4 14.5 0.00 0.00 0.00 43 1011.0
20260503195057 19 264 6.4 16.1 0.00 0.00 0.00 43 1011.0
20260503194603 19 267 8.0 16.1 0.00 0.00 0.00 42 1010.9
20260503194057 19 238 6.4 16.1 0.00 0.00 0.00 41 1010.9
20260503193557 19 261 6.4 16.1 0.00 0.00 0.00 41 1010.8
20260503193056 19 251 6.4 12.9 0.00 0.00 0.00 41 1010.7
20260503192556 19 240 4.8 14.5 0.00 0.00 0.00 41 1010.7
20260503192057 20 240 6.4 14.5 0.00 0.00 0.00 40 1010.7
20260503191603 20 228 6.4 16.1 0.00 0.00 0.00 40 1010.6
20260503191058 20 244 8.0 16.1 0.00 0.00 0.00 39 1010.5
20260503190559 20 246 6.4 12.9 0.00 0.00 0.00 39 1010.5
20260503190057 20 238 4.8 19.3 0.00 0.00 0.00 38 1010.4
20260503185558 20 244 6.4 20.9 0.00 0.00 0.00 38 1010.4
20260503185100 20 223 8.0 20.9 0.00 0.00 0.00 37 1010.3
20260503184559 20 232 9.7 20.9 0.00 0.00 0.00 38 1010.3
20260503184057 20 237 8.0 19.3 0.00 0.00 0.00 37 1010.3
20260503183558 20 278 9.7 22.5 0.00 0.00 0.00 37 1010.2
20260503183105 21 181 11.3 22.5 0.00 0.00 0.00 36 1010.2
20260503182556 21 245 8.0 27.4 0.00 0.00 0.00 37 1010.2
20260503182057 21 244 14.5 27.4 0.00 0.00 0.00 35 1010.1
20260503181605 21 238 11.3 27.4 0.00 0.00 0.00 36 1010.1
20260503181056 21 210 9.7 27.4 0.00 0.00 0.00 36 1010.0
20260503180555 21 238 11.3 27.4 0.00 0.00 0.00 35 1010.0
20260503180106 21 260 12.9 30.6 0.00 0.00 0.00 36 1010.0
20260503175556 21 232 11.3 30.6 0.00 0.00 0.00 36 1009.9
20260503175056 21 244 14.5 25.7 0.00 0.00 0.00 37 1009.9
20260503174604 20 219 9.7 22.5 0.00 0.00 0.00 39 1009.8
20260503174056 21 209 8.0 16.1 0.00 0.00 0.00 41 1009.8
20260503173557 21 348 0.0 8.0 0.00 0.00 0.00 43 1009.8
20260503173111 21 190 1.6 8.0 0.00 0.00 0.00 42 1009.8
20260503172558 21 190 3.2 8.0 0.00 0.00 0.00 42 1009.8
20260503172057 21 212 1.6 9.7 0.00 0.00 0.00 42 1009.8
20260503171600 21 217 4.8 11.3 0.00 0.00 0.00 42 1009.9
20260503171056 21 203 3.2 12.9 0.00 0.00 0.00 42 1010.0
20260503170557 21 246 6.4 14.5 0.00 0.00 0.00 41 1010.0
20260503150559 21 175 4.8 12.9 0.00 0.00 0.00 38 1010.4
20260503140108 22 198 4.8 9.7 0.00 0.00 0.00 40 1010.8
20260503131058 21 229 3.2 12.9 0.00 0.00 0.00 40 1011.3
20260503130559 21 205 4.8 14.5 0.00 0.00 0.00 39 1011.4
20260503110556 22 189 9.7 25.7 0.00 0.00 0.00 40 1012.1
20260503110108 22 213 11.3 24.1 0.00 0.00 0.00 36 1012.2
20260503081556 22 0 3.2 12.9 0.00 0.00 0.00 49 1012.7
20260503081056 21 202 4.8 14.5 0.00 0.00 0.00 48 1012.6
20260503080556 21 208 4.8 14.5 0.00 0.00 0.00 48 1012.6
20260503072556 19 0 1.6 8.0 0.00 0.00 0.00 63 1012.6
20260503072057 18 0 0.0 8.0 0.00 0.00 0.00 64 1012.6
20260503071612 18 0 1.6 8.0 0.00 0.00 0.00 64 1012.6
20260503071056 18 0 0.0 4.8 0.00 0.00 0.00 66 1012.7
20260503070601 17 0 0.0 1.6 0.00 0.00 0.00 67 1012.6
20260503060125 14 0 0.0 8.0 0.00 0.00 0.00 77 1012.6
20260503055057 13 169 4.8 12.9 0.00 0.00 0.00 77 1012.5
20260503054601 13 171 4.8 14.5 0.00 0.00 0.00 78 1012.5
20260503054058 13 151 4.8 14.5 0.00 0.00 0.00 78 1012.5
20260503053558 13 179 4.8 11.3 0.00 0.00 0.00 79 1012.5
20260503053058 12 360 4.8 9.7 0.00 0.00 0.00 79 1012.6
20260503052558 12 360 1.6 14.5 0.00 0.00 0.00 80 1012.6
20260503052058 12 360 3.2 14.5 0.00 0.00 0.00 81 1012.6
20260503051555 12 360 3.2 12.9 0.00 0.00 0.00 82 1012.6
20260503051101 12 360 4.8 9.7 0.00 0.00 0.00 83 1012.7
20260503050600 11 360 3.2 12.9 0.00 0.00 0.00 83 1012.7
20260503050057 11 360 3.2 12.9 0.00 0.00 0.00 84 1012.7
20260503045558 11 360 3.2 9.7 0.00 0.00 0.00 85 1012.7
20260503045057 11 360 1.6 9.7 0.00 0.00 0.00 85 1012.8
20260503044558 11 360 4.8 9.7 0.00 0.00 0.00 86 1012.8
20260503044100 11 0 3.2 9.7 0.00 0.00 0.00 86 1012.8
20260503043557 10 360 3.2 12.9 0.00 0.00 0.00 86 1012.7
20260503043059 10 360 3.2 12.9 0.00 0.00 0.00 86 1012.7
20260503042600 10 360 1.6 8.0 0.00 0.00 0.00 86 1012.8
20260503042057 10 0 0.0 4.8 0.00 0.00 0.00 86 1012.8
20260503041555 10 0 0.0 3.2 0.00 0.00 0.00 85 1012.8
20260503041058 10 0 0.0 4.8 0.00 0.00 0.00 85 1012.9
20260503040559 10 360 0.0 4.8 0.00 0.00 0.00 85 1012.9
20260503040113 10 0 0.0 0.0 0.00 0.00 0.00 84 1013.0
20260503035558 10 0 0.0 4.8 0.00 0.00 0.00 83 1013.0
20260503035058 10 0 0.0 4.8 0.00 0.00 0.00 83 1013.1
20260503034557 10 360 0.0 4.8 0.00 0.00 0.00 82 1013.1
20260503034058 11 360 1.6 3.2 0.00 0.00 0.00 82 1013.0
20260503033557 11 0 0.0 0.0 0.00 0.00 0.00 82 1013.0
20260503033112 11 0 0.0 0.0 0.00 0.00 0.00 82 1013.1
20260503032557 11 0 0.0 0.0 0.00 0.00 0.00 82 1013.0
20260503032058 11 0 0.0 0.0 0.00 0.00 0.00 82 1013.1
20260503031607 11 0 0.0 0.0 0.00 0.00 0.00 82 1013.1
20260503031058 11 0 0.0 0.0 0.00 0.00 0.00 82 1013.0
20260503030556 11 0 0.0 4.8 0.00 0.00 0.00 81 1013.1
20260503030107 11 0 0.0 4.8 0.00 0.00 0.00 80 1013.1
20260503025557 11 360 0.0 4.8 0.00 0.00 0.00 79 1013.2
20260503025056 11 360 0.0 4.8 0.00 0.00 0.00 79 1013.3
20260503024600 11 360 0.0 4.8 0.00 0.00 0.00 78 1013.3
20260503024100 11 0 0.0 4.8 0.00 0.00 0.00 78 1013.3
20260503023556 12 360 1.6 4.8 0.00 0.00 0.00 78 1013.3
20260503023102 12 360 1.6 4.8 0.00 0.00 0.00 78 1013.3
20260503022555 12 0 0.0 4.8 0.00 0.00 0.00 78 1013.4
20260503022059 12 0 1.6 6.4 0.00 0.00 0.00 77 1013.5
20260503021604 12 360 3.2 6.4 0.00 0.00 0.00 77 1013.4
20260503021055 12 0 0.0 4.8 0.00 0.00 0.00 76 1013.4
20260503020555 12 360 3.2 4.8 0.00 0.00 0.00 75 1013.5
20260503020058 12 0 0.0 3.2 0.00 0.00 0.00 74 1013.5
20260503015555 13 0 0.0 0.0 0.00 0.00 0.00 74 1013.6
20260503015056 13 0 0.0 0.0 0.00 0.00 0.00 75 1013.5
20260503014611 13 0 0.0 0.0 0.00 0.00 0.00 74 1013.6
20260503014056 13 0 0.0 0.0 0.00 0.00 0.00 74 1013.6
20260503013556 13 0 0.0 4.8 0.00 0.00 0.00 74 1013.6
20260503013058 13 0 0.0 8.0 0.00 0.00 0.00 73 1013.6
20260503012556 13 360 1.6 8.0 0.00 0.00 0.00 73 1013.7
20260503012058 13 360 3.2 8.0 0.00 0.00 0.00 73 1013.8
20260503011600 13 360 1.6 4.8 0.00 0.00 0.00 73 1013.7
20260503011055 13 360 1.6 6.4 0.00 0.00 0.00 73 1013.7
20260503010555 13 360 0.0 8.0 0.00 0.00 0.00 72 1013.8
20260503010058 13 360 3.2 8.0 0.00 0.00 0.00 72 1013.9
20260503005556 13 360 3.2 8.0 0.00 0.00 0.00 71 1014.0
20260503005056 13 360 3.2 9.7 0.00 0.00 0.00 70 1014.1
20260503004602 13 360 3.2 9.7 0.00 0.00 0.00 69 1014.2
20260503004059 13 360 4.8 12.9 0.00 0.00 0.00 68 1014.3
20260503003558 13 360 4.8 14.5 0.00 0.00 0.00 67 1014.3
20260503003106 13 360 4.8 19.3 0.00 0.00 0.00 65 1014.3
20260503002558 13 360 4.8 19.3 0.00 0.00 0.00 65 1014.3
20260503002056 13 360 4.8 19.3 0.00 0.00 0.00 63 1014.5
20260503001606 13 360 3.2 9.7 0.00 0.00 0.00 62 1014.3
20260503001055 13 360 1.6 22.5 0.00 0.00 0.00 61 1014.4
20260503000559 14 360 4.8 22.5 0.00 0.00 0.00 61 1014.4
20260503000055 14 360 1.6 6.4 0.00 0.00 0.00 59 1014.5
20260502235556 15 360 1.6 6.4 0.00 0.00 0.00 56 1014.0
20260502235056 15 186 1.6 6.4 0.00 0.00 0.00 56 1014.0
20260502234556 15 186 3.2 8.0 0.00 0.00 0.00 56 1014.0
20260502234056 15 186 3.2 9.7 0.00 0.00 0.00 55 1014.1
20260502233556 15 180 4.8 12.9 0.00 0.00 0.00 55 1014.1
20260502233057 15 360 6.4 12.9 0.00 0.00 0.00 55 1014.1
20260502232559 15 170 4.8 12.9 0.00 0.00 0.00 56 1014.1
20260502232056 15 178 4.8 12.9 0.00 0.00 0.00 55 1014.1
20260502231600 15 360 6.4 12.9 0.00 0.00 0.00 55 1014.1
20260502231057 15 360 6.4 12.9 0.00 0.00 0.00 55 1014.1
20260502230557 15 159 6.4 12.9 0.00 0.00 0.00 55 1014.1
20260502230058 15 360 6.4 12.9 0.00 0.00 0.00 55 1014.1
20260502225555 15 360 4.8 12.9 0.00 0.00 0.00 55 1014.1
20260502225057 15 360 4.8 12.9 0.00 0.00 0.00 55 1014.2
20260502224604 15 360 6.4 14.5 0.00 0.00 0.00 55 1014.2
20260502224056 15 360 6.4 14.5 0.00 0.00 0.00 55 1014.2
20260502223556 15 360 6.4 14.5 0.00 0.00 0.00 55 1014.2